"Pseudo-MPEC" for CAR8CQ2

Created 2024 Sep 5 17:22:11 UT using Find_Orb

Click here for an explanation of pseudo-MPECs

 
 Astrometry: 
     CAR8CQ2*1C2024 09 04.33645923 33 36.126-17 21 13.54   ~949q 19.72GVNEOCPG96
     CAR8CQ2 1C2024 09 04.34764323 33 52.801-17 18 13.86   ~949q 19.82GVNEOCPG96
     CAR8CQ2 1C2024 09 04.35324523 34 01.171-17 16 43.54   ~949q 20.46GVNEOCPG96
     CAR8CQ2  C2024 09 04.41644923 35 33.689-16 59 49.88   ~94Aq 19.6 GVNEOCPH01
     CAR8CQ2  C2024 09 04.41984823 35 38.734-16 58 55.01   ~94Aq 19.7 GVNEOCPH01
     CAR8CQ2 KC2024 09 04.42808023 35 51.720-16 56 39.40   ~94Ab 19.19GVNEOCPI52
     CAR8CQ2 KC2024 09 04.42908223 35 53.210-16 56 22.80   ~94Ab 20.00GVNEOCPI52
     CAR8CQ2 KC2024 09 04.43008623 35 54.620-16 56 09.50   ~94Abx      VNEOCPI52
     CAR8CQ2  C2024 09 04.43017323 35 53.985-16 56 09.05   ~94Aq 19.9 GVNEOCPH01
     CAR8CQ2 KC2024 09 04.43108323 35 56.140-16 55 51.50   ~94Ab 20.34GVNEOCPI52
     CAR8CQ2  C2024 09 04.43696223 36 04.031-16 54 19.95   ~94Aq 20.0 GVNEOCPH01
     CAR8CQ2  C2024 09 04.46019723 36 53.861-16 47 36.57   ~94Nq       VNEOCPF51
     CAR8CQ2  C2024 09 04.47165923 37 10.074-16 44 37.18   ~94Nq 20.22GVNEOCPF51
     CAR8CQ2  C2024 09 04.48283823 37 25.842-16 41 42.43   ~94Nq 19.70GVNEOCPF51
     CAR8CQ2 pC2024 09 04.92239123 48 11.59 -14 54 38.0    ~94Mq 20.1 GVNEOCPL01
     CAR8CQ2 pC2024 09 04.92685723 48 17.17 -14 53 35.7    ~94Mq 20.2 GVNEOCPL01
     CAR8CQ2 pC2024 09 04.92834723 48 19.00 -14 53 15.8    ~94Mq 20.4 GVNEOCPL01
     CAR8CQ2 !C2024 09 05.38456 23 57 43.67 -13 11 28.1    ~959q 20.2 GVNEOCP673
     CAR8CQ2 !C2024 09 05.38905 23 57 48.45 -13 10 31.7    ~959q       VNEOCP673

Station data:
(673) Table Mountain Observatory, Wrightwood  (N34.381485 W117.682170)
   US/California.  Observers J. Chesley, J. Pittichova. Measurer W. M. Owen
   Jr. 0.61-m f/16 reflector + CCD.
(F51) Pan-STARRS 1, Haleakala  (N20.707234 W156.255910)  US/Hawaii.
   Observers J. Bulger, T. Lowe, A. Schultz, M. Willman. Measurers K.
   Chambers, S. Chastel, T. de Boer, L. Denneau, J. Fairlamb, H. Flewelling,
   M. Huber, C.-C. Lin, E. Magnier, Y. Ramanjooloo, R. Wainscoat, R. Weryk.
   1.8-m Ritchey-Chrétien + CCD.
(G96) Mt. Lemmon Survey  (N32.442729 W110.788720)  US/Arizona.  Observer E.
   J. Christensen. 1.5-m reflector + 10K CCD.
(H01) Magdalena Ridge Observatory, Socorro  (N33.984833 W107.189333)  US/New
   Mexico.  Observers W. H. Ryan, E. V. Ryan. Measurer W. H. Ryan. 2.4-m
   f/8.9 reflector + CCD.
(I52) Steward Observatory, Mt. Lemmon Station  (N32.442570 W110.788920)
   US/Arizona.  Observers T. A. Pruyne, B. M. Africano, E. J. Christensen, G.
   A. Farneth, D. C. Fuls, A. R. Gibbs, A. D. Grauer, H. Gröller, J. A.
   Johnson, R. A. Kowalski, S. M. Larson, G. J. Leonard, D. Rankin, R. L.
   Seaman, F. C. Shelly, K. W. Wierzchoś. 1.0-m prime focus + CCD.
(L01) Višnjan Observatory, Tičan  (N45.290897 E13.749300)  Croatia.
   Observers K. Korlević, D. Pujagic, V. Dobos. Measurers D. Pujagic, K.
   Korlević. 1.0-m f/2.9 reflector + CCD.

Orbital elements:  CAR8CQ2
   Perihelion 2024 Aug 15.76750 +/- 0.00756 TT = 18:25:11 (JD 2460538.26750)
Epoch 2024 Sep  5.0 TT = JDT 2460558.5   Earth MOID: 0.0003   Ma: 0.0076
M   6.27454188 +/- 0.018            (J2000 ecliptic)             AutoNEOCP
n   0.31012186 +/- 0.000921         Peri.  193.07146 +/- 0.07
a   2.16162881 +/- 0.00428          Node   125.65620 +/- 0.06
e   0.5360128 +/- 0.000929          Incl.    0.52808 +/- 0.0012
P   3.17813                H 27.34  G  0.15   U  8.0
q 1.00296806 +/- 3.51e-5    Q 3.32028957 +/- 0.00857
18 of 19 observations 2024 Sept. 4-5 (25.3 hr); mean residual 0".27
Residuals in arcseconds: 
240904 G96  .28-  .23+    240904 I52( .94-  2.3-)   240904 L01  .53+  .03+    
240904 G96  .48-  .24-    240904 H01  .16+  .03+    240904 L01  .01-  .24+    
240904 G96  .03-  .14-    240904 I52  .18-  .27-    240904 L01  .61-  .57-    
240904 H01  .05+  .01-    240904 H01  .31+  .00     240905 673  .04-  .25+    
240904 H01  .33+  .16+    240904 F51  .43+  .05+    240905 673  .03+  .11-    
240904 I52  .19-  .05+    240904 F51  .01+  .07+    
240904 I52  .03+  .56+    240904 F51  .30-  .12-    

Ephemerides (geocentric):
Date (UTC) HH   RA             Dec           delta  r     elong  mag " sig PA
---- --------  ------------   ------------  ------ ------ -----  --- --------
2024 09 05 17  00 03 47.300   -12 02 28.33  .02978 1.0366 163.0 20.7 .514  11
2024 09 05 18  00 04 31.427   -11 54 26.30  .02994 1.0367 162.9 20.7 .535  13
2024 09 05 19  00 05 15.027   -11 46 29.06  .03010 1.0369 162.8 20.7 .557  14
2024 09 05 20  00 05 58.109   -11 38 36.54  .03027 1.0370 162.7 20.7 .579  15
2024 09 05 21  00 06 40.680   -11 30 48.70  .03043 1.0371 162.6 20.7 .603  17
2024 09 05 22  00 07 22.749   -11 23 05.50  .03060 1.0373 162.5 20.8 .627  18
2024 09 05 23  00 08 04.323   -11 15 26.88  .03076 1.0374 162.4 20.8 .653  19
2024 09 06 00  00 08 45.411   -11 07 52.78  .03093 1.0375 162.2 20.8 .679  20
2024 09 06 01  00 09 26.019   -11 00 23.17  .03109 1.0377 162.1 20.8 .706  21
2024 09 06 02  00 10 06.155   -10 52 58.00  .03126 1.0378 162.0 20.8 .734  22
2024 09 06 03  00 10 45.826   -10 45 37.21  .03143 1.0379 161.9 20.8 .763  23
2024 09 06 04  00 11 25.040   -10 38 20.75  .03160 1.0381 161.9 20.8 .792  24
2024 09 06 05  00 12 03.804   -10 31 08.59  .03176 1.0382 161.8 20.9 .822  25
2024 09 06 06  00 12 42.124   -10 24 00.66  .03193 1.0383 161.7 20.9 .853  26
2024 09 06 07  00 13 20.007   -10 16 56.93  .03210 1.0385 161.6 20.9 .884  27
2024 09 06 08  00 13 57.460   -10 09 57.35  .03227 1.0386 161.5 20.9 .916  28
2024 09 06 09  00 14 34.490   -10 03 01.86  .03244 1.0387 161.4 20.9 .949  28
2024 09 06 10  00 15 11.102   -09 56 10.43  .03261 1.0389 161.3 20.9 .982  29
2024 09 06 11  00 15 47.303   -09 49 23.00  .03278 1.0390 161.2 20.9 1.02  30
2024 09 06 12  00 16 23.100   -09 42 39.53  .03295 1.0391 161.1 21.0 1.05  30
2024 09 06 13  00 16 58.498   -09 35 59.98  .03312 1.0393 161.0 21.0 1.08  31
2024 09 06 14  00 17 33.503   -09 29 24.30  .03329 1.0394 160.9 21.0 1.12  31
2024 09 06 15  00 18 08.121   -09 22 52.45  .03346 1.0395 160.8 21.0 1.15  32
2024 09 06 16  00 18 42.358   -09 16 24.38  .03364 1.0397 160.7 21.0 1.19  32
2024 09 06 17  00 19 16.220   -09 10 00.05  .03381 1.0398 160.6 21.0 1.23  33
2024 09 06 18  00 19 49.711   -09 03 39.41  .03398 1.0399 160.5 21.0 1.26  33
2024 09 06 19  00 20 22.838   -08 57 22.42  .03416 1.0401 160.4 21.1 1.30  34
2024 09 06 20  00 20 55.606   -08 51 09.05  .03433 1.0402 160.4 21.1 1.34  34
2024 09 06 21  00 21 28.020   -08 44 59.24  .03450 1.0404 160.3 21.1 1.38  35
2024 09 06 22  00 22 00.085   -08 38 52.96  .03468 1.0405 160.2 21.1 1.41  35
2024 09 06 23  00 22 31.806   -08 32 50.16  .03485 1.0406 160.1 21.1 1.45  35
2024 09 07 00  00 23 03.189   -08 26 50.81  .03503 1.0408 160.0 21.1 1.49  36
2024 09 07 01  00 23 34.238   -08 20 54.86  .03520 1.0409 159.9 21.1 1.53  36
2024 09 07 02  00 24 04.957   -08 15 02.28  .03538 1.0410 159.8 21.2 1.57  36
2024 09 07 03  00 24 35.353   -08 09 13.02  .03555 1.0412 159.8 21.2 1.61  37
2024 09 07 04  00 25 05.428   -08 03 27.05  .03573 1.0413 159.7 21.2 1.64  37
2024 09 07 05  00 25 35.188   -07 57 44.33  .03590 1.0415 159.6 21.2 1.68  37
2024 09 07 06  00 26 04.638   -07 52 04.81  .03608 1.0416 159.5 21.2 1.72  37
2024 09 07 07  00 26 33.781   -07 46 28.47  .03626 1.0417 159.4 21.2 1.76  38
2024 09 07 08  00 27 02.622   -07 40 55.26  .03643 1.0419 159.4 21.2 1.80  38
2024 09 07 09  00 27 31.165   -07 35 25.15  .03661 1.0420 159.3 21.2 1.84  38
2024 09 07 10  00 27 59.415   -07 29 58.10  .03679 1.0422 159.2 21.3 1.88  38
2024 09 07 11  00 28 27.375   -07 24 34.08  .03697 1.0423 159.1 21.3 1.92  39
2024 09 07 12  00 28 55.049   -07 19 13.05  .03715 1.0424 159.1 21.3 1.96  39
2024 09 07 13  00 29 22.442   -07 13 54.97  .03732 1.0426 159.0 21.3 2.00  39
2024 09 07 14  00 29 49.558   -07 08 39.82  .03750 1.0427 158.9 21.3 2.04  39
2024 09 07 15  00 30 16.399   -07 03 27.54  .03768 1.0429 158.9 21.3 2.08  39
2024 09 07 16  00 30 42.970   -06 58 18.13  .03786 1.0430 158.8 21.3 2.12  39